BATSU-CS1 (IRAZU) (43468 NORAD) Tracking and Keplerian Element Data

This shows tracking and keplerian element data for the satellite.

Feedback or suggestion? Click here.




ElementValue
Catalog43468
NameBATSU-CS1 (IRAZU)
Epoch Orbit15415
Epoch Day113.61537076
Epoch Year2019
RAAN256.5523
Inclination51.6369
Eccentricity0.0001321
Argument of Perigee283.6253
Mean Anonmoly76.4595
Mean Motion15.66280685
Decay Rate0.0002487
L11 43468U 98067NR 19113.61537076 .00024870 00000-0 24042-3 0 9991
L22 43468 51.6369 256.5523 0001321 283.6253 76.4595 15.66280685154150

Live tracking and technical data element details for BATSU-CS1 (IRAZU) (NORAD 43468). BATSU-CS1 (IRAZU) can be tracked NOW for your location showing map with azimuth and elevation plus other details from your city location.

Track the satellite on the map from your city or location and see movement details for azimuth, elevation, latitude, longitude, range, height, and movement on the map or in text.







IsCatalogInMostPopularTable: catalog: 43468, numindb: 172
Update: records affected: 1



GetName: 43468 BATSU-CS1 (IRAZU)

Hit Count: updated at: Wed, 24 Apr 2019 18:06:50 GMT